Theta_e
307 309 311 312 314 314 311 309 308 309 309 309 309 309 309 309 310 311 313 316 321 323 321 323 325 330 332 333 340 342 354 353 349 350 351 346 344 342 341 349 349 348 347 349 349
308 308 309 312 312 314 314 310 309 309 309 309 309 310 310 310 311 315 316 319 320 321 320 325 325 329 331 334 343 348 350 352 347 347 346 346 344 342 343 345 341 345 347 348 348
310 309 310 310 313 313 315 313 310 309 309 309 310 310 310 310 322 317 322 325 322 321 321 324 326 328 329 332 343 346 349 347 346 344 343 344 344 341 342 345 342 341 340 341 346
311 310 309 313 312 314 315 315 311 310 309 309 310 310 310 314 325 325 327 327 325 322 321 324 325 327 329 334 341 346 343 342 342 340 343 345 344 341 340 341 344 339 340 340 342
310 311 309 311 313 314 315 315 313 310 309 309 309 310 312 321 317 326 327 326 323 321 321 322 326 328 329 333 335 345 343 341 341 343 341 343 341 342 343 342 343 341 342 340 347
310 311 311 310 316 313 316 316 314 311 310 309 309 310 318 321 323 323 326 324 321 323 323 324 326 328 329 331 333 336 343 341 342 342 341 340 338 343 341 340 345 345 344 343 348
309 310 310 310 317 314 316 316 314 311 310 310 310 311 320 320 326 326 323 324 326 325 324 328 329 328 329 331 332 334 339 339 339 339 340 337 337 344 339 336 344 347 348 349 349
309 309 311 310 317 315 316 316 314 311 310 310 310 317 322 321 327 325 326 325 327 327 328 330 329 328 330 331 334 337 339 341 338 339 339 337 340 343 337 336 338 347 349 353 351
308 309 310 310 315 316 317 315 312 311 310 310 311 320 327 326 326 328 328 328 329 329 329 330 329 328 328 334 334 335 338 338 339 339 338 337 341 337 339 336 335 346 351 352 351
307 308 310 310 312 317 317 313 312 310 313 318 320 323 325 327 326 327 331 333 333 331 330 329 328 329 332 332 336 337 333 336 337 340 337 337 337 338 337 339 338 341 349 353 352
307 308 309 311 311 318 315 316 319 320 322 323 325 327 328 327 328 329 331 331 331 332 332 331 331 336 335 336 337 336 335 335 336 337 336 338 337 337 336 339 340 338 342 346 346
307 308 309 310 311 318 315 324 324 324 325 324 323 323 326 328 330 329 330 330 331 331 330 332 331 335 335 335 336 336 337 337 336 337 335 336 338 337 341 339 338 341 340 339 333
307 308 309 311 312 318 316 316 318 323 324 327 325 323 325 328 327 328 329 329 330 331 331 331 332 335 336 335 336 336 337 335 330 331 331 331 331 340 339 342 339 336 339 336 336
307 308 309 311 323 324 324 322 320 323 327 329 328 325 325 326 326 327 330 329 330 331 331 332 333 335 336 337 335 329 329 328 329 328 328 330 330 336 340 342 341 342 339 342 345
307 308 309 311 314 325 323 324 325 326 335 333 327 325 324 325 327 327 329 328 330 331 332 333 332 335 337 334 330 328 329 328 330 329 329 335 333 334 338 343 339 340 339 332 339
307 309 310 316 323 322 321 322 326 327 335 328 324 323 323 324 326 327 329 329 329 330 331 330 330 329 328 329 329 330 331 332 333 332 336 335 337 336 344 344 340 337 337 334 340
307 309 311 312 324 324 325 323 328 328 330 327 324 324 323 326 326 326 329 330 329 331 332 332 331 329 333 332 331 332 333 332 333 332 333 336 339 344 342 340 338 337 341 337 340
308 310 321 323 321 327 326 326 331 329 328 334 332 325 324 326 327 328 329 329 328 329 330 334 337 334 334 334 334 334 332 333 340 341 338 337 349 352 340 337 336 337 338 340 343
310 313 323 326 326 324 325 328 330 330 329 333 334 328 326 326 328 328 328 329 336 336 337 337 337 334 334 334 334 335 332 332 336 338 342 341 344 344 342 341 342 340 339 340 339
314 318 327 327 326 325 327 328 328 326 326 327 335 334 331 330 331 331 337 337 337 335 332 337 336 335 336 337 334 332 334 337 338 347 348 342 343 346 343 343 343 340 339 337 334
316 329 330 328 324 326 328 327 327 327 327 327 331 334 333 335 332 334 337 335 335 336 333 335 340 340 336 336 335 333 331 336 337 342 350 349 348 341 341 340 338 338 340 334 335
318 332 330 324 325 326 325 326 323 326 326 327 328 330 333 335 336 336 336 335 336 336 337 337 339 339 334 330 329 328 337 340 342 342 345 344 349 341 340 339 338 339 338 331 330
319 323 324 328 329 325 325 325 324 325 325 327 327 327 330 334 338 336 336 338 339 341 342 335 336 332 329 328 332 335 334 335 340 339 344 346 345 339 341 335 337 341 329 331 333
321 334 338 337 331 331 329 331 331 330 325 326 327 326 328 330 332 337 341 339 338 337 343 335 334 333 334 335 335 336 335 336 339 342 343 342 343 338 342 339 338 335 332 332 331
325 330 336 338 333 329 332 339 337 332 333 333 327 326 326 335 335 337 340 335 335 336 341 341 345 345 341 337 336 335 335 339 341 340 342 342 340 339 340 337 337 332 331 331 331
324 323 321 323 329 332 334 341 340 336 339 341 341 339 326 332 335 341 340 339 340 336 343 344 347 345 346 342 336 337 338 339 339 338 340 341 338 331 333 333 335 333 331 332 331
317 320 322 324 327 328 338 338 337 335 334 337 342 341 340 342 339 339 339 336 337 338 342 347 345 345 343 340 339 342 341 341 338 335 335 341 334 330 332 332 334 333 332 332 330
Wind_Speed
22 18 15 12 11 9 6 5 5 5 5 6 6 7 9 12 12 12 8 16 9 18 21 17 17 25 25 9 8 4 2 0 5 3 9 27 13 8 8 18 16 9 14 9 28
29 23 17 13 11 9 7 5 5 5 6 6 7 8 9 12 13 14 25 18 14 11 14 14 13 16 11 6 6 5 4 10 11 15 13 20 12 10 3 19 17 14 16 13 22
32 29 24 15 11 9 8 6 6 6 6 6 7 7 8 10 4 10 22 20 20 19 17 20 23 17 13 9 7 7 8 9 16 24 20 12 15 10 7 5 19 19 16 15 14
32 32 29 21 12 9 8 6 6 6 6 6 7 7 6 2 4 5 21 22 20 17 15 16 9 8 10 9 9 7 13 14 13 24 7 10 16 12 5 5 21 18 15 9 13
33 32 33 29 15 9 7 6 5 6 6 6 6 6 4 3 9 12 16 23 18 11 14 10 13 15 8 9 5 12 13 18 15 9 17 18 13 9 4 1 15 15 13 14 14
33 33 34 32 19 10 7 5 5 6 5 6 5 4 2 5 16 17 16 19 14 12 14 18 10 9 8 10 9 1 13 19 8 14 14 6 1 6 6 6 22 18 17 18 16
33 34 35 33 24 9 6 6 5 5 5 5 3 3 5 14 4 18 19 21 16 16 12 25 17 10 10 9 10 9 6 6 12 8 5 6 8 6 4 3 8 7 12 12 9
33 34 35 35 29 10 6 5 4 5 5 4 3 1 8 19 14 18 18 19 16 18 21 21 17 6 5 9 7 7 6 5 2 3 6 3 7 4 8 7 9 13 11 11 9
33 33 35 35 31 12 6 4 3 4 4 4 2 4 9 9 12 14 23 21 22 19 19 15 8 6 9 5 6 6 3 4 5 6 2 3 5 9 13 14 10 13 14 12 8
32 32 34 35 31 14 5 2 2 3 3 4 9 4 9 11 16 17 18 18 9 7 7 7 5 2 5 6 5 4 7 1 9 4 3 6 9 10 8 11 9 7 13 14 11
32 32 33 34 32 14 2 1 2 2 6 10 8 6 3 27 18 12 18 11 9 4 7 9 2 2 8 7 15 6 11 13 17 9 6 8 16 15 14 9 12 11 13 16 23
33 32 33 32 33 14 6 4 9 11 6 19 20 17 30 16 8 8 15 7 7 8 9 8 8 7 10 11 16 15 16 22 20 19 10 16 17 21 5 4 9 14 8 14 18
33 32 32 31 31 6 11 17 18 21 5 13 12 10 14 7 6 10 11 9 9 10 12 9 12 7 16 17 12 19 18 13 5 6 4 5 4 7 1 10 8 4 11 13 17
34 33 32 34 8 6 8 9 12 15 4 7 11 11 13 6 10 16 19 9 8 12 12 10 15 16 16 17 17 10 7 8 11 10 4 4 8 4 3 1 2 8 5 13 16
35 35 30 24 17 7 14 16 5 5 3 5 13 7 9 11 1 10 17 8 11 12 11 13 12 16 15 16 5 7 3 7 7 9 5 5 4 5 6 2 6 7 5 4 4
39 36 31 10 12 19 9 11 3 1 6 6 9 7 10 11 14 11 7 7 9 11 11 10 10 8 9 8 7 9 7 6 6 4 3 5 5 7 6 5 13 17 20 8 5
42 33 29 16 7 10 12 9 1 4 6 5 11 9 11 9 11 14 10 7 5 5 7 12 15 15 4 6 9 12 11 5 5 5 5 2 5 4 9 8 6 11 23 12 14
42 31 14 17 14 8 12 2 5 9 13 9 13 12 12 12 13 12 6 7 12 10 6 3 7 7 4 4 6 5 7 3 4 3 5 8 2 3 3 2 6 12 14 16 12
37 19 10 13 8 10 1 4 6 5 7 5 6 7 10 14 11 10 11 7 4 3 5 3 5 5 1 4 7 5 3 5 1 3 3 1 3 1 5 8 10 11 12 13 2
28 11 10 13 11 10 2 7 7 11 17 20 3 8 8 5 2 1 8 6 1 4 5 4 7 8 9 9 4 5 4 3 2 2 3 1 4 1 7 5 9 13 13 7 13
7 4 3 19 14 1 4 6 11 18 17 16 7 9 8 3 5 4 5 2 3 3 7 6 4 6 7 5 9 9 7 3 4 4 3 2 2 4 2 4 4 5 7 9 9
10 3 12 16 2 3 5 6 9 20 20 8 2 6 9 3 4 6 3 0 7 7 2 1 2 3 7 18 14 11 3 6 5 6 4 4 1 4 3 1 3 7 6 8 12
5 4 10 15 3 5 8 15 19 20 19 4 5 10 7 6 5 9 4 16 13 3 3 2 2 4 8 7 7 5 8 3 4 3 1 2 3 5 4 5 6 6 6 7 9
3 3 3 1 4 5 9 11 15 13 15 7 9 14 10 7 8 6 16 0 5 5 8 3 2 5 5 8 8 11 9 3 5 3 1 2 2 5 8 6 3 4 5 5 7
3 3 4 4 6 12 13 14 16 13 14 7 7 11 14 7 6 5 6 4 2 5 5 5 2 3 9 12 13 14 15 4 4 5 4 1 5 6 6 5 6 5 5 6 4
4 4 5 8 10 11 11 10 14 18 8 10 17 31 13 7 7 5 8 5 7 1 2 3 5 4 8 14 15 15 6 7 4 6 8 7 6 7 6 5 5 7 4 5 5
11 14 4 7 8 10 3 8 12 10 12 13 19 13 15 19 3 4 2 7 7 8 5 2 3 2 6 9 13 8 3 6 6 7 3 2 6 8 6 5 4 6 8 7 7
Wind_Direction
21 14 6 0 356 349 327 307 294 287 290 292 298 297 298 299 295 282 242 243 249 290 279 296 284 263 249 230 104 90 65 176 177 263 290 296 313 356 39 63 68 92 9 146 157
20 17 9 358 350 343 329 304 287 281 283 292 299 299 309 315 312 259 243 242 269 275 289 292 289 288 257 234 107 117 339 203 217 192 200 256 294 56 21 93 76 103 202 155 171
17 16 12 359 346 338 329 308 289 284 288 290 294 301 315 330 317 246 239 236 253 263 281 286 285 287 294 273 169 163 190 194 224 225 210 217 253 191 181 123 152 173 195 174 206
13 12 9 2 346 334 326 308 278 272 278 285 291 305 319 330 206 225 211 222 241 245 276 288 292 297 276 269 125 128 216 178 232 228 195 223 255 251 197 204 177 186 195 159 221
8 9 7 4 349 334 323 307 277 264 268 276 292 314 309 228 254 281 215 210 214 223 250 266 279 284 343 331 344 162 190 199 225 257 253 249 259 176 78 348 163 174 174 188 206
5 5 3 2 352 332 317 299 268 256 262 274 299 314 301 255 238 253 187 192 206 209 252 255 257 305 319 324 310 88 182 204 240 200 254 291 352 90 249 156 166 167 187 199 182
2 1 1 359 356 334 311 299 270 250 256 268 296 322 265 243 192 211 185 201 213 229 240 266 312 14 319 322 312 334 42 44 34 14 19 23 334 185 219 206 155 144 142 171 146
358 357 357 358 357 335 308 292 265 247 247 260 262 178 252 245 272 215 191 214 222 237 257 283 308 335 284 302 350 30 48 7 1 318 224 75 291 298 244 206 210 157 139 123 117
355 353 353 355 355 337 306 280 250 247 251 250 252 213 265 258 232 237 193 212 216 228 252 272 284 263 319 11 10 15 274 304 301 308 346 149 255 270 226 232 227 162 141 134 126
351 349 348 351 351 338 307 260 264 242 260 274 264 270 256 224 214 225 224 222 231 211 253 254 266 316 356 38 307 268 286 1 274 249 248 301 283 248 235 240 217 85 80 56 44
348 345 344 345 347 336 230 328 346 271 235 206 196 232 284 211 223 208 199 219 266 202 239 257 250 184 280 246 272 272 263 271 267 209 225 236 251 253 235 236 68 66 76 139 193
346 343 340 339 337 326 214 242 241 314 272 226 250 253 258 272 171 196 202 191 218 249 241 269 246 222 231 244 251 242 250 260 266 227 201 234 239 246 301 105 118 111 96 79 58
346 341 337 335 329 308 221 236 268 306 298 278 220 232 255 219 259 202 179 204 230 228 241 226 234 146 262 272 250 247 237 265 303 304 265 236 321 122 98 105 101 100 124 116 139
342 339 336 334 329 332 249 273 251 271 304 258 193 236 244 202 235 256 185 185 235 241 247 249 262 190 235 252 255 257 305 346 331 334 295 313 286 214 166 115 168 163 182 151 149
338 336 330 330 295 286 279 330 358 15 299 175 163 237 181 211 195 230 197 187 239 266 279 284 302 212 229 239 262 260 334 286 286 285 322 298 76 244 104 7 303 256 153 201 109
333 333 325 322 291 274 312 325 297 351 248 191 157 172 180 219 245 253 209 191 203 241 274 274 293 298 277 296 294 304 329 335 320 290 349 264 171 359 350 303 357 359 349 186 143
330 327 314 280 232 316 324 265 348 221 301 138 161 191 185 207 230 255 188 201 199 255 265 270 267 266 0 6 357 12 2 325 336 347 248 1 77 229 339 348 354 4 14 133 155
331 328 307 265 263 299 291 17 239 253 230 212 238 179 187 217 207 241 206 197 217 207 252 278 342 14 357 130 174 275 157 239 293 271 289 350 99 281 248 298 330 42 62 50 22
334 329 276 263 235 219 70 223 219 217 267 17 317 206 198 215 213 197 231 223 90 86 135 357 293 339 244 169 136 246 262 204 225 354 10 237 54 353 352 356 9 35 23 32 341
332 311 260 223 182 199 155 247 255 275 293 305 57 276 264 266 271 179 12 59 17 221 134 291 318 344 338 335 325 15 264 352 34 229 274 271 302 213 327 0 5 8 18 45 49
323 298 101 153 152 105 219 242 277 267 260 274 302 309 331 68 239 105 138 298 203 233 90 276 63 306 352 330 303 319 317 354 112 139 184 255 238 354 20 58 358 7 70 81 103
331 289 179 148 137 208 233 248 265 278 286 313 300 295 299 57 43 341 290 274 269 169 194 279 184 285 267 279 278 254 235 137 124 283 210 182 210 251 225 15 250 82 116 111 106
314 268 288 209 239 254 262 252 258 270 278 308 290 288 259 242 133 168 231 1 306 57 50 334 1 330 331 328 355 21 313 7 109 71 351 68 267 210 221 131 61 84 119 120 102
285 299 324 1 241 289 303 293 302 291 259 293 293 298 299 270 285 205 132 62 11 61 338 94 165 177 217 257 278 300 312 36 105 101 244 246 94 64 59 75 83 108 131 132 164
228 338 12 333 327 329 312 307 309 307 326 339 272 266 282 272 282 134 130 153 295 219 150 131 189 294 289 293 299 294 278 109 96 135 152 53 94 79 109 118 114 136 107 94 92
21 3 341 296 284 302 294 353 353 357 6 336 15 340 265 276 244 166 135 180 217 244 158 223 195 215 274 282 286 294 242 140 150 155 118 143 121 111 97 83 110 135 126 97 87
348 338 295 299 316 311 15 345 334 358 307 44 4 346 331 3 69 117 179 178 175 158 202 179 153 113 270 284 304 303 275 137 108 71 100 103 148 131 116 115 146 146 174 185 183